Location: Unspecified
(38.0989°N, 0.6729°W)
Time: 20:44:49
(UTC+01:00)

Tiangong 2 - Visible Passes

Search period start: 18 January 2018 00:00
Search period end: 28 January 2018 00:00
Orbit: 384 x 390 km, 42.8° (Epoch: 18 January)

Date Brightness Start Highest point End Pass type
(mag) Time Alt. Az. Time Alt. Az. Time Alt. Az.
18 Jan 2.5 06:34:29 28° S 06:35:26 35° SSE 06:38:24 10° E visible
19 Jan 4.7 05:39:05 11° E 05:39:05 11° E 05:39:18 10° E visible
19 Jan 1.0 07:11:23 20° WSW 07:13:27 74° NNW 07:16:39 10° ENE visible
20 Jan 2.5 06:15:46 38° E 06:15:46 38° E 06:17:55 10° ENE visible
21 Jan 1.4 06:52:19 42° NW 06:52:52 48° NNW 06:56:00 10° ENE visible
22 Jan 4.0 05:56:28 17° ENE 05:56:28 17° ENE 05:57:17 10° ENE visible
22 Jan 2.1 07:28:44 13° WNW 07:31:11 33° N 07:34:08 10° ENE visible
23 Jan 2.2 06:32:48 35° NNE 06:32:48 35° NNE 06:35:20 10° ENE visible
24 Jan 2.1 07:09:05 21° NW 07:10:39 33° N 07:13:36 10° ENE visible
25 Jan 3.2 06:13:04 23° NE 06:13:04 23° NE 06:14:43 10° ENE visible
26 Jan 2.0 06:49:18 32° NNW 06:50:05 39° N 06:53:06 10° E visible
27 Jan 4.0 05:53:16 16° ENE 05:53:16 16° ENE 05:54:09 10° ENE visible
27 Jan 1.1 07:25:32 13° WNW 07:28:15 78° NNE 07:31:26 10° ESE visible
